DW3845 Weather Reports


Display with metric or nautical units.
time (UTC)temp
F
wind
direction
speed
MPH
gust
MPH
rain 1hr
in
rain 24hr
in
rain mn
in
humidity
%
barometer
mb
20260506194548 70 161 1.0 5.0 0.00 0.00 0.00 40 997.9
20260506193042 69 166 1.0 5.0 0.00 0.00 0.00 39 998.2
20260506191539 69 94 0.0 4.0 0.00 0.00 0.00 37 998.5
20260506190035 68 183 1.0 5.0 0.00 0.00 0.00 39 998.8
20260506184533 67 295 0.0 1.0 0.00 0.00 0.00 40 998.9
20260506183033 66 161 0.0 4.0 0.00 0.00 0.00 41 999.1
20260506181526 66 225 0.0 1.0 0.00 0.00 0.00 41 999.1
20260506180023 64 169 0.0 1.0 0.00 0.00 0.00 39 999.2
20260506174520 63 222 0.0 1.0 0.00 0.00 0.00 41 999.3
20260506173022 62 236 0.0 1.0 0.00 0.00 0.00 42 999.5
20260506171515 61 240 1.0 3.0 0.00 0.00 0.00 42 999.7
20260506170012 60 106 1.0 3.0 0.00 0.00 0.00 46 999.9
20260506164508 59 224 0.0 3.0 0.00 0.00 0.00 48 1000.1
20260506163005 58 224 0.0 1.0 0.00 0.00 0.00 48 1000.1
20260506161503 57 233 0.0 0.0 0.00 0.00 0.00 50 1000.2
20260506160111 56 224 0.0 1.0 0.00 0.00 0.00 51 1000.3
20260506154556 55 252 0.0 0.0 0.00 0.00 0.00 52 1000.4
20260506153051 52 248 0.0 0.0 0.00 0.00 0.00 61 1000.4
20260506151550 50 49 0.0 0.0 0.00 0.00 0.00 61 1000.5
20260506150050 48 46 0.0 0.0 0.00 0.00 0.00 67 1000.6
20260506144548 48 46 0.0 0.0 0.00 0.00 0.00 72 1000.6
20260506143048 46 47 0.0 0.0 0.00 0.00 0.00 75 1000.5
20260506141605 45 46 0.0 0.0 0.00 0.00 0.00 78 1000.5
20260506140046 43 46 0.0 0.0 0.00 0.00 0.00 79 1000.5
20260506134545 41 47 0.0 0.0 0.00 0.00 0.00 82 1000.4
20260506133043 39 44 0.0 0.0 0.00 0.00 0.00 84 1000.4
20260506131541 38 44 0.0 0.0 0.00 0.00 0.00 84 1000.3
20260506130040 38 41 0.0 0.0 0.00 0.00 0.00 83 1000.3
20260506124540 38 40 0.0 0.0 0.00 0.00 0.00 83 1000.0
20260506123041 38 20 0.0 0.0 0.00 0.00 0.00 82 999.9
20260506121533 38 44 0.0 0.0 0.00 0.00 0.00 82 999.7
20260506120052 38 38 0.0 0.0 0.00 0.00 0.00 82 999.7
20260506114530 39 41 0.0 0.0 0.00 0.00 0.00 81 999.7
20260506113029 39 46 0.0 0.0 0.00 0.00 0.00 81 999.8
20260506111508 39 42 0.0 0.0 0.00 0.00 0.00 81 999.7
20260506110005 39 46 0.0 0.0 0.00 0.00 0.00 80 999.7
20260506104502 40 37 0.0 0.0 0.00 0.00 0.00 78 999.6
20260506103004 40 16 0.0 0.0 0.00 0.00 0.00 78 999.5
20260506101558 40 44 0.0 0.0 0.00 0.00 0.00 78 999.6
20260506100056 41 54 0.0 0.0 0.00 0.00 0.00 76 999.4
20260506094553 42 44 0.0 0.0 0.00 0.00 0.00 74 999.4
20260506093053 42 34 0.0 0.0 0.00 0.00 0.00 74 999.3
20260506091550 42 39 0.0 0.0 0.00 0.00 0.00 74 999.3
20260506090047 42 40 0.0 0.0 0.00 0.00 0.00 71 999.2
20260506084544 43 50 0.0 0.0 0.00 0.00 0.00 71 999.0
20260506083045 44 44 2.0 3.0 0.00 0.00 0.00 69 999.0
20260506081538 45 43 1.0 3.0 0.00 0.00 0.00 65 998.8
20260506073031 51 253 1.0 3.0 0.00 0.00 0.00 50 998.4
20260506071526 46 338 1.0 2.0 0.00 0.00 0.00 64 998.3
20260506061524 48 41 0.0 4.0 0.00 0.00 0.00 65 997.9
20260506044517 47 43 0.0 1.0 0.00 0.00 0.00 72 997.0
20260506043013 48 34 0.0 0.0 0.00 0.00 0.00 69 996.9
20260506041506 49 44 3.0 5.0 0.00 0.00 0.00 67 996.7
20260506040006 49 44 3.0 4.0 0.00 0.00 0.00 67 996.6
20260506034503 50 46 3.0 4.0 0.00 0.00 0.00 67 996.5
20260506033108 51 46 2.0 4.0 0.00 0.00 0.00 61 996.3
20260506031603 52 46 2.0 3.0 0.00 0.00 0.00 61 996.1
20260506030113 53 42 2.0 3.0 0.00 0.00 0.00 60 995.9
20260506024557 54 41 2.0 3.0 0.00 0.00 0.00 61 995.9
20260506023056 57 27 0.0 0.0 0.00 0.00 0.00 55 995.8
20260506021558 60 360 0.0 1.0 0.00 0.00 0.00 47 995.7
20260506020053 64 290 0.0 2.0 0.00 0.00 0.00 38 995.6
20260506014600 67 290 0.0 3.0 0.00 0.00 0.00 35 995.6
20260506013053 68 298 0.0 1.0 0.00 0.00 0.00 30 995.6
20260506011558 67 259 0.0 1.0 0.00 0.00 0.00 30 995.7
20260506010055 67 339 1.0 4.0 0.00 0.00 0.00 28 995.8
20260506004622 68 264 0.0 1.0 0.00 0.00 0.00 27 995.8
20260506003049 68 57 1.0 5.0 0.00 0.00 0.00 28 995.9
20260506001548 69 51 4.0 6.0 0.00 0.00 0.00 27 996.1
20260506000047 69 352 0.0 3.0 0.00 0.00 0.00 26 996.2
20260505234609 70 250 0.0 2.0 0.00 0.00 0.00 28 996.4
20260505233045 69 10 4.0 8.0 0.00 0.00 0.00 25 996.5
20260505231549 69 309 2.0 7.0 0.00 0.00 0.00 26 996.7
20260505230047 70 49 0.0 2.0 0.00 0.00 0.00 25 996.9
20260505224543 68 41 3.0 7.0 0.00 0.00 0.00 26 997.0
20260505223142 68 332 1.0 4.0 0.00 0.00 0.00 28 997.1
20260505221556 68 256 2.0 6.0 0.00 0.00 0.00 28 997.4
20260505220040 70 75 1.0 6.0 0.00 0.00 0.00 25 997.4
20260505214542 69 65 1.0 7.0 0.00 0.00 0.00 27 997.6
20260505213034 69 67 3.0 7.0 0.00 0.00 0.00 26 997.8
20260505211532 67 43 6.0 12.0 0.00 0.00 0.00 27 998.0
20260505210031 67 329 4.0 13.0 0.00 0.00 0.00 29 998.1
20260505204531 67 228 2.0 11.0 0.00 0.00 0.00 28 998.2
20260505203028 66 43 5.0 9.0 0.00 0.00 0.00 28 998.4
20260505201529 68 4 2.0 9.0 0.00 0.00 0.00 29 998.4
20260505200026 66 113 2.0 8.0 0.00 0.00 0.00 32 998.6